FW8727 Weather Reports


time (UTC)temp
C
wind
direction
speed
KPH
gust
KPH
rain 1hr
cm
rain 24hr
cm
rain mn
cm
humidity
%
barometer
mb
20260505055521 11 270 6.4 14.5 0.00 0.00 0.00 77 1011.0
20260505054520 11 270 6.4 16.1 0.00 0.00 0.00 77 1010.9
20260505053519 11 270 8.0 22.5 0.00 0.00 0.00 77 1010.8
20260505052519 11 248 6.4 17.7 0.00 0.00 0.00 77 1010.8
20260505051521 11 248 4.8 17.7 0.00 0.00 0.00 78 1011.0
20260505050519 11 270 6.4 19.3 0.00 0.00 0.00 78 1011.0
20260505041519 11 248 8.0 22.5 0.00 0.00 0.00 75 1011.1
20260505040519 12 225 9.7 22.5 0.00 0.00 0.00 74 1011.0
20260505040019 12 225 6.4 16.1 0.00 0.00 0.00 74 1011.0
20260505035018 12 248 6.4 22.5 0.00 0.00 0.00 73 1010.8
20260505034019 12 248 8.0 19.3 0.00 0.00 0.00 72 1010.8
20260505033517 12 248 6.4 19.3 0.00 0.00 0.00 72 1010.9
20260505032517 12 248 4.8 20.9 0.00 0.00 0.00 70 1010.8
20260505031520 12 270 6.4 16.1 0.00 0.00 0.00 70 1010.8
20260505030521 13 270 4.8 17.7 0.00 0.00 0.00 69 1010.8
20260505025523 13 270 8.0 22.5 0.00 0.00 0.00 69 1010.8
20260505024519 13 248 6.4 19.3 0.00 0.00 0.00 69 1010.8
20260505023521 13 270 9.7 24.1 0.00 0.00 0.00 68 1010.8
20260505022521 13 270 9.7 25.7 0.00 0.00 0.00 68 1010.8
20260505021520 13 270 14.5 29.0 0.00 0.00 0.00 68 1010.8
20260505020521 13 270 14.5 29.0 0.00 0.00 0.00 68 1010.8
20260505015519 13 270 12.9 32.2 0.00 0.00 0.00 68 1010.6
20260505015019 13 270 14.5 32.2 0.00 0.00 0.00 68 1010.5
20260505014021 13 270 9.7 22.5 0.00 0.00 0.00 68 1010.5
20260505013019 13 270 9.7 24.1 0.00 0.00 0.00 68 1010.3
20260505012021 13 270 9.7 22.5 0.00 0.00 0.00 67 1010.1
20260505011025 13 270 14.5 32.2 0.00 0.00 0.00 66 1009.8
20260505010017 14 270 14.5 27.4 0.00 0.00 0.00 63 1009.6
20260505005021 15 270 11.3 29.0 0.00 0.00 0.00 62 1009.4
20260505004019 15 248 9.7 22.5 0.00 0.00 0.00 61 1009.4
20260505003041 15 270 9.7 20.9 0.00 0.00 0.00 60 1009.1
20260505002021 15 248 9.7 25.7 0.00 0.00 0.00 58 1008.8
20260505001019 16 248 14.5 30.6 0.00 0.00 0.00 57 1008.4
20260505000021 15 248 12.9 33.8 0.00 0.00 0.00 60 1008.4
20260504235019 15 248 16.1 30.6 0.00 0.00 0.00 60 1008.3
20260504234019 15 270 12.9 25.7 0.00 0.00 0.00 61 1008.2
20260504233019 15 248 12.9 35.4 0.00 0.00 0.00 63 1007.9
20260504232021 15 248 14.5 32.2 0.00 0.00 0.00 60 1007.8
20260504231018 15 225 11.3 27.4 0.00 0.00 0.00 62 1007.6
20260504230019 15 225 9.7 22.5 0.00 0.00 0.00 64 1007.6
20260504225019 15 248 11.3 25.7 0.00 0.00 0.00 62 1007.6
20260504224542 15 248 11.3 32.2 0.00 0.00 0.00 61 1007.5
20260504223609 15 225 9.7 22.5 0.00 0.00 0.00 63 1007.4
20260504222519 15 225 9.7 29.0 0.00 0.00 0.00 62 1007.3
20260504221542 15 248 11.3 32.2 0.00 0.00 0.00 61 1007.3
20260504220521 16 248 6.4 24.1 0.00 0.00 0.00 58 1007.3
20260504215521 16 225 8.0 20.9 0.00 0.00 0.00 55 1007.2
20260504214519 17 225 9.7 25.7 0.00 0.00 0.00 51 1007.1
20260504213519 21 203 6.4 19.3 0.00 0.00 0.00 39 1007.0
20260504212519 21 248 6.4 17.7 0.00 0.00 0.00 38 1006.9
20260504211519 21 248 6.4 22.5 0.00 0.00 0.00 39 1006.9
20260504210519 21 225 6.4 17.7 0.00 0.00 0.00 39 1006.8
20260504205521 21 248 8.0 19.3 0.00 0.00 0.00 40 1006.9
20260504204559 21 225 3.2 14.5 0.00 0.00 0.00 37 1007.0
20260504203521 21 248 9.7 24.1 0.00 0.00 0.00 34 1006.9
20260504202519 21 248 8.0 20.9 0.00 0.00 0.00 37 1006.9
20260504201519 22 248 9.7 24.1 0.00 0.00 0.00 35 1007.0
20260504200519 21 270 16.1 32.2 0.00 0.00 0.00 33 1006.8
20260504195607 21 248 8.0 20.9 0.00 0.00 0.00 37 1006.8
20260504194519 21 270 14.5 32.2 0.00 0.00 0.00 32 1006.9
20260504193518 22 270 9.7 22.5 0.00 0.00 0.00 32 1006.8
20260504192521 22 270 12.9 25.7 0.00 0.00 0.00 34 1006.9
20260504191521 21 270 11.3 24.1 0.00 0.00 0.00 35 1006.8
20260504190521 21 270 16.1 40.2 0.00 0.00 0.00 33 1007.2
20260504185605 21 270 11.3 20.9 0.00 0.00 0.00 35 1007.0
20260504184627 21 270 12.9 30.6 0.00 0.00 0.00 35 1007.3
20260504184123 21 248 14.5 27.4 0.00 0.00 0.00 34 1007.1
20260504182734 21 270 17.7 40.2 0.00 0.00 0.00 34 1007.4
20260504174519 20 270 19.3 41.8 0.00 0.00 0.00 36 1007.6
20260504174101 20 270 19.3 48.3 0.00 0.00 0.00 35 1007.7
20260504171810 20 270 14.5 30.6 0.00 0.00 0.00 40 1007.7
20260504150518 17 225 8.0 19.3 0.00 0.03 0.00 49 1009.4
20260504140520 17 270 14.5 25.7 0.00 0.05 0.00 45 1009.9
20260504130518 13 270 4.8 14.5 0.00 0.05 0.00 56 1010.4
20260504110538 10 270 3.2 11.3 0.00 0.05 0.00 61 1011.1
20260504100520 8 270 3.2 12.9 0.00 0.05 0.00 61 1010.9
20260504081541 9 293 8.0 19.3 0.00 0.05 0.00 55 1010.7
20260504080542 9 270 11.3 19.3 0.00 0.05 0.00 54 1010.6